Regional Weather Roundup
Issued by NWS

Home | Current Version | Previous Version | Text Only | Print | Product List | Glossary On
Versions: 1 2 3 4 5 6 7 8 9 10 11 12 13 14 15 16 17 18 19 20 21 22 23 24 25 26 27 28 29 30 31 32 33 34 35 36 37 38 39 40 41 42 43 44 45 46 47 48 49 50
000
ASUS44 KLIX 070510
RWRLA
LOUISIANA WEATHER ROUNDUP
NATIONAL WEATHER SERVICE NEW ORLEANS LA
1100 PM CST FRI MAR 06 2015

NOTE: "FAIR" INDICATES FEW OR NO CLOUDS BELOW 12,000 FEET WITH NO
      SIGNIFICANT WEATHER AND/OR OBSTRUCTIONS TO VISIBILITY.
      SKY/WX - SKY CONDITION AND SIGNIFICANT WEATHER.
      TMP - AIR TEMPERATURE.    DP   - DEWPOINT TEMPERATURE.
      RH  - RELATIVE HUMIDITY.  PRES - PRESSURE.
      HX  - HEAT INDEX.         WCI  - WIND CHILL INDEX.

*  THESE STATIONS ARE NOT NWS OR FAA STATIONS AND ARE NOT UNDER
   NWS QUALITY CONTROL.

LAZ040-048-061>063-065-066-069-070600-
SOUTHEAST LOUISIANA

CITY           SKY/WX    TMP DP  RH WIND       PRES   REMARKS
N.O. AUDUBON     N/A     49  28  43 MISG        N/A
N.O. INTL ARPT CLOUDY    47  25  42 N12       30.48R
N.O. LAKEFRONT CLOUDY    50  26  39 N16       30.48S
SLIDELL        CLOUDY    37  29  72 N5        30.47F WCI  33
BATON ROUGE    PTCLDY    38  23  55 N5        30.50S WCI  34
BOOTHVILLE     PTCLDY    50  31  48 NE8       30.45R
BELLE CHASSE   CLOUDY    48  22  35 N6        30.47R
BOGALUSA*        N/A     34  27  75 N5        30.49F WCI  30
GALLIANO*      MOCLDY    44  32  61 MISG      30.47S
NEW ROADS*     FAIR      37  24  59 N7        30.51S WCI  32
GONZALES*      FAIR      43  20  40 N3        30.49S
HAMMOND*       PTCLDY    37  25  60 CALM      30.49F
HOUMA*         MOCLDY    43  28  54 N5        30.47S
PORT FOURCHON* CLEAR     48  34  57 N7        30.49S

$$

LAZ041-044-053-054-070600-
SOUTHWEST LOUISIANA

CITY           SKY/WX    TMP DP  RH WIND       PRES   REMARKS
LAKE CHARLES   PTCLDY    36  31  82 CALM      30.50S
LAFAYETTE      PTCLDY    38  27  64 NE7       30.50S WCI  33
PATTERSON      MOCLDY    45  27  49 N5        30.49S
SALT POINT     NOT AVBL
NEW IBERIA     MOCLDY    38  28  67 N8        30.50S WCI  32
CHENAULT AIRPK PTCLDY    39  27  61 NE3       30.51S

$$

LAZ027-028-070600-
CENTRAL LOUISIANA

CITY           SKY/WX    TMP DP  RH WIND       PRES   REMARKS
FORT POLK      CLEAR     36  22  57 NE6       30.49F WCI  31
ALEXANDRIA INT CLEAR     36  22  56 NE6       30.50S WCI  31
ALEXANDRIA     CLEAR     29  24  82 CALM      30.51F

$$

LAZ001-002-070600-
NORTHWEST LOUISIANA

CITY           SKY/WX    TMP DP  RH WIND       PRES   REMARKS
SHREVEPORT     PTCLDY    33  27  78 CALM      30.50S
BARKSDALE AFB  CLEAR     32  26  78 SE5       30.50F WCI  28
DTN SHREVEPORT CLEAR     34  26  72 CALM      30.51S

$$

LAZ014-016-070600-
NORTHEAST LOUISIANA

CITY           SKY/WX    TMP DP  RH WIND       PRES   REMARKS
MONROE         CLEAR     31  27  85 CALM      30.53F
TALLULAH       CLEAR     29  25  85 CALM      30.53S

$$



USA.gov is the U.S. government's official web portal to all federal, state and local government web resources and services.